| time (UTC) | temp F | wind direction | speed knots | gust knots | rain 1hr in | rain 24hr in | rain mn in | humidity % | barometer mb |
| 20260510201504 | 52 | 62 | 1.7 | 3.5 | 0.00 | 0.00 | 0.00 | 75 | 1014.3 |
| 20260510201004 | 52 | 0 | 0.0 | 3.5 | 0.00 | 0.00 | 0.00 | 75 | 1014.3 |
| 20260510200503 | 52 | 0 | 0.0 | 2.6 | 0.00 | 0.00 | 0.00 | 74 | 1014.3 |
| 20260510194504 | 53 | 11 | 1.7 | 5.2 | 0.00 | 0.00 | 0.00 | 73 | 1014.3 |
| 20260510194004 | 53 | 359 | 1.7 | 3.5 | 0.00 | 0.00 | 0.00 | 72 | 1014.3 |
| 20260510193503 | 54 | 353 | 1.7 | 3.5 | 0.00 | 0.00 | 0.00 | 72 | 1014.2 |
| 20260510191504 | 54 | 33 | 1.7 | 10.4 | 0.00 | 0.00 | 0.00 | 71 | 1014.1 |
| 20260510190503 | 55 | 62 | 2.6 | 10.4 | 0.00 | 0.00 | 0.00 | 70 | 1014.2 |
| 20260510185004 | 55 | 63 | 3.5 | 11.3 | 0.00 | 0.00 | 0.00 | 70 | 1014.3 |
| 20260510183504 | 55 | 64 | 5.2 | 12.2 | 0.00 | 0.00 | 0.00 | 70 | 1014.4 |
| 20260510182005 | 56 | 56 | 7.0 | 13.9 | 0.00 | 0.00 | 0.00 | 69 | 1014.4 |
| 20260510181003 | 56 | 47 | 5.2 | 14.8 | 0.00 | 0.00 | 0.00 | 68 | 1014.4 |
| 20260510180003 | 56 | 44 | 7.0 | 17.4 | 0.00 | 0.00 | 0.00 | 69 | 1014.4 |
| 20260510175504 | 56 | 45 | 7.8 | 19.1 | 0.00 | 0.00 | 0.00 | 69 | 1014.3 |
| 20260510174006 | 56 | 49 | 5.2 | 19.1 | 0.00 | 0.00 | 0.00 | 69 | 1014.3 |
| 20260510173506 | 56 | 49 | 5.2 | 19.1 | 0.00 | 0.00 | 0.00 | 69 | 1014.3 |
| 20260510170506 | 57 | 60 | 7.0 | 16.5 | 0.00 | 0.00 | 0.00 | 69 | 1014.3 |
| 20260510170006 | 57 | 58 | 7.8 | 17.4 | 0.00 | 0.00 | 0.00 | 69 | 1014.3 |
| 20260510165506 | 57 | 56 | 7.8 | 17.4 | 0.00 | 0.00 | 0.00 | 69 | 1014.3 |
| 20260510165006 | 58 | 62 | 7.0 | 19.1 | 0.00 | 0.00 | 0.00 | 68 | 1014.3 |
| 20260510164506 | 58 | 58 | 7.0 | 19.1 | 0.00 | 0.00 | 0.00 | 67 | 1014.4 |
| 20260510163506 | 59 | 63 | 7.8 | 19.1 | 0.00 | 0.00 | 0.00 | 67 | 1014.2 |
| 20260510163006 | 59 | 54 | 7.8 | 19.1 | 0.00 | 0.00 | 0.00 | 67 | 1014.2 |
| 20260510161006 | 60 | 49 | 7.0 | 14.8 | 0.00 | 0.00 | 0.00 | 66 | 1014.1 |
| 20260510160506 | 60 | 52 | 7.8 | 21.7 | 0.00 | 0.00 | 0.00 | 66 | 1014.1 |
| 20260510160006 | 60 | 58 | 8.7 | 21.7 | 0.00 | 0.00 | 0.00 | 65 | 1014.1 |
| 20260510155506 | 60 | 62 | 8.7 | 24.3 | 0.00 | 0.00 | 0.00 | 65 | 1014.1 |
| 20260510154006 | 61 | 70 | 7.0 | 20.0 | 0.00 | 0.00 | 0.00 | 65 | 1014.1 |
| 20260510152505 | 62 | 65 | 5.2 | 12.2 | 0.00 | 0.00 | 0.00 | 64 | 1014.1 |
| 20260510152007 | 61 | 76 | 5.2 | 14.8 | 0.00 | 0.00 | 0.00 | 64 | 1014.2 |
| 20260510151505 | 61 | 76 | 7.0 | 19.1 | 0.00 | 0.00 | 0.00 | 65 | 1014.3 |
| 20260510151007 | 61 | 68 | 7.0 | 19.1 | 0.00 | 0.00 | 0.00 | 63 | 1014.3 |
| 20260510150505 | 61 | 64 | 7.0 | 19.1 | 0.00 | 0.00 | 0.00 | 65 | 1014.4 |
| 20260510144005 | 64 | 68 | 5.2 | 21.7 | 0.00 | 0.00 | 0.00 | 63 | 1014.4 |
| 20260510143506 | 64 | 72 | 5.2 | 21.7 | 0.00 | 0.00 | 0.00 | 59 | 1014.5 |
| 20260510141005 | 65 | 79 | 3.5 | 13.9 | 0.00 | 0.00 | 0.00 | 58 | 1014.7 |
| 20260510135505 | 64 | 78 | 5.2 | 17.4 | 0.00 | 0.00 | 0.00 | 58 | 1014.8 |
| 20260510135006 | 65 | 85 | 3.5 | 13.9 | 0.00 | 0.00 | 0.00 | 58 | 1014.9 |
| 20260510134505 | 64 | 76 | 3.5 | 13.9 | 0.00 | 0.00 | 0.00 | 59 | 1014.8 |
| 20260510134006 | 64 | 67 | 3.5 | 11.3 | 0.00 | 0.00 | 0.00 | 59 | 1014.9 |
| 20260510133005 | 64 | 87 | 5.2 | 12.2 | 0.00 | 0.00 | 0.00 | 61 | 1014.9 |
| 20260510132506 | 64 | 94 | 5.2 | 12.2 | 0.00 | 0.00 | 0.00 | 58 | 1014.9 |
| 20260510131506 | 63 | 74 | 5.2 | 17.4 | 0.00 | 0.00 | 0.00 | 59 | 1015.0 |
| 20260510131006 | 64 | 74 | 3.5 | 12.2 | 0.00 | 0.00 | 0.00 | 60 | 1015.0 |
| 20260510130505 | 63 | 73 | 7.0 | 17.4 | 0.00 | 0.00 | 0.00 | 60 | 1015.1 |
| 20260510130006 | 63 | 74 | 7.8 | 17.4 | 0.00 | 0.00 | 0.00 | 61 | 1015.2 |
| 20260510123005 | 63 | 62 | 3.5 | 19.1 | 0.00 | 0.00 | 0.00 | 58 | 1015.4 |
| 20260510122506 | 63 | 78 | 7.0 | 24.3 | 0.00 | 0.00 | 0.00 | 60 | 1015.3 |
| 20260510120505 | 61 | 74 | 7.8 | 20.0 | 0.00 | 0.00 | 0.00 | 60 | 1015.6 |
| 20260510120005 | 61 | 73 | 7.0 | 20.0 | 0.00 | 0.00 | 0.00 | 57 | 1015.7 |
| 20260510115507 | 62 | 72 | 7.0 | 21.7 | 0.00 | 0.00 | 0.00 | 60 | 1015.6 |
| 20260510114505 | 61 | 71 | 5.2 | 16.5 | 0.00 | 0.00 | 0.00 | 60 | 1015.7 |
| 20260510114006 | 62 | 80 | 5.2 | 19.1 | 0.00 | 0.00 | 0.00 | 60 | 1015.8 |
| 20260510112506 | 62 | 79 | 5.2 | 12.2 | 0.00 | 0.00 | 0.00 | 59 | 1015.9 |
| 20260510103505 | 60 | 91 | 5.2 | 14.8 | 0.00 | 0.00 | 0.00 | 64 | 1015.9 |
| 20260510103005 | 60 | 78 | 7.0 | 17.4 | 0.00 | 0.00 | 0.00 | 65 | 1015.9 |
| 20260510102005 | 60 | 68 | 3.5 | 14.8 | 0.00 | 0.00 | 0.00 | 65 | 1016.1 |
| 20260510101505 | 60 | 58 | 5.2 | 16.5 | 0.00 | 0.00 | 0.00 | 66 | 1016.0 |
| 20260510095505 | 59 | 61 | 7.0 | 21.7 | 0.00 | 0.00 | 0.00 | 65 | 1016.1 |
| 20260510092506 | 58 | 67 | 7.0 | 17.4 | 0.00 | 0.00 | 0.00 | 67 | 1016.1 |
| 20260510092005 | 58 | 61 | 7.0 | 22.6 | 0.00 | 0.00 | 0.00 | 69 | 1016.2 |
| 20260510091006 | 57 | 64 | 7.0 | 16.5 | 0.00 | 0.00 | 0.00 | 69 | 1016.3 |
| 20260510090005 | 57 | 61 | 7.8 | 22.6 | 0.00 | 0.00 | 0.00 | 67 | 1016.5 |
| 20260510085505 | 58 | 57 | 5.2 | 17.4 | 0.00 | 0.00 | 0.00 | 70 | 1016.3 |
| 20260510085005 | 58 | 69 | 5.2 | 14.8 | 0.00 | 0.00 | 0.00 | 68 | 1016.4 |
| 20260510084505 | 58 | 76 | 5.2 | 14.8 | 0.00 | 0.00 | 0.00 | 68 | 1016.4 |
| 20260510083005 | 56 | 77 | 5.2 | 13.9 | 0.00 | 0.00 | 0.00 | 72 | 1016.5 |
| 20260510081505 | 55 | 59 | 7.8 | 14.8 | 0.00 | 0.00 | 0.00 | 75 | 1016.6 |
| 20260510081006 | 55 | 60 | 7.8 | 19.1 | 0.00 | 0.00 | 0.00 | 76 | 1016.6 |
| 20260510075505 | 53 | 59 | 7.8 | 19.1 | 0.00 | 0.00 | 0.00 | 78 | 1016.8 |
| 20260510074505 | 52 | 64 | 7.0 | 17.4 | 0.00 | 0.00 | 0.00 | 80 | 1016.9 |
| 20260510074005 | 51 | 61 | 7.0 | 17.4 | 0.00 | 0.00 | 0.00 | 81 | 1016.8 |
| 20260510073505 | 51 | 62 | 5.2 | 13.9 | 0.00 | 0.00 | 0.00 | 82 | 1016.8 |
| 20260510072006 | 50 | 54 | 3.5 | 8.7 | 0.00 | 0.00 | 0.00 | 82 | 1016.8 |
| 20260510065505 | 50 | 62 | 5.2 | 12.2 | 0.00 | 0.00 | 0.00 | 82 | 1016.7 |
| 20260510064504 | 50 | 71 | 5.2 | 12.2 | 0.00 | 0.00 | 0.00 | 82 | 1016.5 |
| 20260510064004 | 50 | 69 | 7.0 | 13.9 | 0.00 | 0.00 | 0.00 | 81 | 1016.4 |
| 20260510063505 | 50 | 63 | 7.0 | 13.9 | 0.00 | 0.00 | 0.00 | 81 | 1016.5 |
| 20260510061505 | 50 | 60 | 5.2 | 17.4 | 0.00 | 0.00 | 0.00 | 81 | 1016.2 |
| 20260510055504 | 50 | 44 | 3.5 | 11.3 | 0.00 | 0.00 | 0.00 | 80 | 1016.2 |
| 20260510054505 | 50 | 41 | 3.5 | 11.3 | 0.00 | 0.00 | 0.00 | 80 | 1016.2 |
| 20260510054005 | 50 | 42 | 3.5 | 12.2 | 0.00 | 0.00 | 0.00 | 80 | 1016.2 |
| 20260510053505 | 50 | 41 | 3.5 | 12.2 | 0.00 | 0.00 | 0.00 | 79 | 1016.1 |
| 20260510052505 | 50 | 57 | 5.2 | 13.9 | 0.00 | 0.00 | 0.00 | 78 | 1016.1 |
| 20260510051505 | 50 | 42 | 3.5 | 12.2 | 0.00 | 0.00 | 0.00 | 78 | 1016.1 |
| 20260510050504 | 50 | 56 | 3.5 | 11.3 | 0.00 | 0.00 | 0.00 | 77 | 1016.2 |
| 20260510050005 | 50 | 73 | 2.6 | 13.9 | 0.00 | 0.00 | 0.00 | 77 | 1016.2 |
| 20260510045505 | 50 | 72 | 2.6 | 13.9 | 0.00 | 0.00 | 0.00 | 76 | 1016.1 |
| 20260510044504 | 50 | 61 | 2.6 | 8.7 | 0.00 | 0.00 | 0.00 | 76 | 1016.1 |
| 20260510043504 | 50 | 61 | 3.5 | 11.3 | 0.00 | 0.00 | 0.00 | 75 | 1016.1 |
| 20260510042005 | 51 | 66 | 2.6 | 8.7 | 0.00 | 0.00 | 0.00 | 74 | 1016.0 |
| 20260510040004 | 52 | 60 | 2.6 | 6.1 | 0.00 | 0.00 | 0.00 | 73 | 1016.0 |
| 20260510033504 | 53 | 61 | 2.6 | 10.4 | 0.00 | 0.00 | 0.00 | 75 | 1016.1 |
| 20260510032504 | 53 | 59 | 2.6 | 8.7 | 0.00 | 0.00 | 0.00 | 77 | 1016.2 |
| 20260510032004 | 54 | 50 | 2.6 | 8.7 | 0.00 | 0.00 | 0.00 | 77 | 1016.1 |
| 20260510031505 | 54 | 58 | 2.6 | 10.4 | 0.00 | 0.00 | 0.00 | 77 | 1016.2 |
| 20260510030005 | 54 | 62 | 3.5 | 11.3 | 0.00 | 0.00 | 0.00 | 76 | 1016.1 |
| 20260510024504 | 55 | 50 | 2.6 | 6.1 | 0.00 | 0.00 | 0.00 | 75 | 1016.2 |